This is the latest recevied weather packets stored in our database for station/object KC0OOO-WX. If no packets are shown the sender has not sent any weather packets the latest 1 day(s).
| Time | Temp. | Humidity | Pressure | Rain* | Wind** | Luminosity | Snow |
|---|---|---|---|---|---|---|---|
| 1778072891 | 2.78° C | 88% | 1015.9 hPa | 0 mm | - | - | - |
| 1778072291 | 2.78° C | 88% | 1015.2 hPa | 0 mm | - | - | - |
| 1778071691 | 2.78° C | 88% | 1015.2 hPa | 0 mm | - | - | - |
| 1778064490 | 3.89° C | 88% | 1014.6 hPa | 0 mm | - | - | - |
| 1778063290 | 3.89° C | 88% | 1014.6 hPa | 0 mm | - | - | - |
| 1778062690 | 3.89° C | 88% | 1014.6 hPa | 0 mm | - | - | - |
| 1778062090 | 3.89° C | 88% | 1014.6 hPa | 0.25 mm | - | - | - |
| 1778061490 | 3.89° C | 88% | 1014.6 hPa | 0.25 mm | - | - | - |
| 1778060890 | 3.89° C | 88% | 1014.6 hPa | 0.25 mm | - | - | - |
| 1778060290 | 3.89° C | 89% | 1014.6 hPa | 0.25 mm | - | - | - |
| 1778059690 | 3.89° C | 88% | 1014.6 hPa | 0.25 mm | - | - | - |
| 1778059090 | 3.89° C | 88% | 1014.6 hPa | 0.25 mm | - | - | - |
| 1778057860 | 3.89° C | 88% | 1014.6 hPa | 0 mm | - | - | - |
| 1778053059 | 3.89° C | 84% | 1015.2 hPa | 1.52 mm | - | - | - |
| 1778051259 | 4.44° C | 83% | 1015.2 hPa | 1.02 mm | - | - | - |
| 1778050659 | 4.44° C | 82% | 1015.2 hPa | 1.02 mm | - | - | - |
| 1778050059 | 5° C | 80% | 1015.2 hPa | 1.02 mm | - | - | - |
| 1778049459 | 5° C | 79% | 1015.2 hPa | 0.76 mm | - | - | - |
| 1778048859 | 5.56° C | 78% | 1014.9 hPa | 0.51 mm | - | - | - |
| 1778048259 | 6.11° C | 72% | 1014.9 hPa | 0 mm | - | - | - |
| 1778047629 | 6.11° C | 71% | 1014.9 hPa | 0 mm | - | - | - |
| 1778046999 | 6.11° C | 71% | 1014.9 hPa | 0 mm | - | - | - |
| 1778046399 | 6.11° C | 71% | 1015.2 hPa | 0 mm | - | - | - |
| 1778045799 | 6.11° C | 71% | 1015.2 hPa | 0 mm | - | - | - |
| 1778045199 | 6.11° C | 71% | 1014.9 hPa | 0 mm | - | - | - |
* Rain latest hour (hover to see other rain measurements)
** Current wind speed in m/s (hover to see current wind gust speed)